Time,TemperatureF,DewpointF,PressureIn,WindDirection,WindDirectionDegrees,WindSpeedMPH,WindSpeedGustMPH,Humidity,HourlyPrecipIn,Conditions,Clouds,dailyrainin,SoftwareType,DateUTC
2013-03-02 04:05:00,28.0,22.0,29.77,West,273,2.0,16.0,78,0.00,,,0.00,Wunderground v.1.15,2013-03-02 09:05:00,
2013-03-02 04:10:00,28.0,22.0,29.77,North,350,3.0,16.0,78,0.00,,,0.00,Wunderground v.1.15,2013-03-02 09:10:00,
2013-03-02 04:15:00,28.0,22.0,29.77,WNW,302,4.0,4.0,78,0.00,,,0.00,Wunderground v.1.15,2013-03-02 09:15:00,
2013-03-02 04:20:00,28.0,22.0,29.77,NW,307,4.0,4.0,78,0.00,,,0.00,Wunderground v.1.15,2013-03-02 09:20:00,
2013-03-02 04:25:00,28.0,22.0,29.77,SE,136,4.0,5.0,78,0.00,,,0.00,Wunderground v.1.15,2013-03-02 09:25:00,
2013-03-02 04:30:00,28.0,22.0,29.77,WNW,285,4.0,5.0,78,0.00,,,0.00,Wunderground v.1.15,2013-03-02 09:30:00,
2013-03-02 04:40:00,27.7,22.0,29.77,West,266,3.0,7.0,79,0.00,,,0.00,Wunderground v.1.15,2013-03-02 09:40:00,
2013-03-02 04:50:00,27.5,22.1,29.77,West,281,3.0,4.0,80,0.00,,,0.00,Wunderground v.1.15,2013-03-02 09:50:00,
2013-03-02 05:00:00,27.3,22.2,29.76,NNW,347,3.0,3.0,81,0.00,,,0.00,Wunderground v.1.15,2013-03-02 10:00:00,
2013-03-02 05:15:00,27.0,22.2,29.76,WNW,298,2.0,11.0,82,0.00,,,0.00,Wunderground v.1.15,2013-03-02 10:15:00,
2013-03-02 05:20:00,26.9,22.1,29.76,West,277,1.0,11.0,82,0.00,,,0.00,Wunderground v.1.15,2013-03-02 10:20:00,
2013-03-02 05:30:00,26.7,22.2,29.76,West,281,2.0,11.0,83,0.00,,,0.00,Wunderground v.1.15,2013-03-02 10:30:00,
2013-03-02 05:40:00,26.7,22.2,29.76,SW,217,2.0,11.0,83,0.00,,,0.00,Wunderground v.1.15,2013-03-02 10:40:00,
2013-03-02 05:50:00,26.6,22.4,29.76,SE,136,3.0,3.0,84,0.00,,,0.00,Wunderground v.1.15,2013-03-02 10:50:00,
2013-03-02 06:00:00,26.7,22.2,29.76,WNW,293,3.0,11.0,83,0.00,,,0.00,Wunderground v.1.15,2013-03-02 11:00:00,
2013-03-02 06:10:00,26.9,22.4,29.77,WNW,290,3.0,4.0,83,0.00,,,0.00,Wunderground v.1.15,2013-03-02 11:10:00,
2013-03-02 06:20:00,27.0,22.5,29.77,WNW,295,3.0,4.0,83,0.00,,,0.00,Wunderground v.1.15,2013-03-02 11:20:00,
2013-03-02 06:30:00,26.9,22.4,29.77,WNW,303,4.0,5.0,83,0.00,,,0.00,Wunderground v.1.15,2013-03-02 11:30:00,
2013-03-02 06:40:00,26.9,22.4,29.77,WNW,297,4.0,4.0,83,0.00,,,0.00,Wunderground v.1.15,2013-03-02 11:40:00,
2013-03-02 06:50:00,26.7,22.2,29.77,WNW,287,3.0,3.0,83,0.00,,,0.00,Wunderground v.1.15,2013-03-02 11:50:00,
2013-03-02 07:00:00,26.6,21.8,29.77,West,273,3.0,6.0,82,0.00,,,0.00,Wunderground v.1.15,2013-03-02 12:00:00,
2013-03-02 07:10:00,26.5,21.7,29.77,WSW,246,5.0,5.0,82,0.00,,,0.00,Wunderground v.1.15,2013-03-02 12:10:00,
2013-03-02 07:20:00,26.5,21.5,29.77,WNW,291,4.0,11.0,81,0.00,,,0.00,Wunderground v.1.15,2013-03-02 12:20:00,
2013-03-02 07:30:00,26.6,21.3,29.77,NW,307,4.0,4.0,80,0.00,,,0.00,Wunderground v.1.15,2013-03-02 12:30:00,
2013-03-02 07:40:00,26.7,21.1,29.77,SW,224,3.0,11.0,79,0.00,,,0.00,Wunderground v.1.15,2013-03-02 12:40:00,
2013-03-02 07:50:00,26.8,21.5,29.77,WSW,253,3.0,3.0,80,0.00,,,0.00,Wunderground v.1.15,2013-03-02 12:50:00,
2013-03-02 08:00:00,26.9,21.6,29.78,NW,312,4.0,11.0,80,0.00,,,0.00,Wunderground v.1.15,2013-03-02 13:00:00,
2013-03-02 08:10:00,27.1,21.5,29.78,WNW,292,3.0,3.0,79,0.00,,,0.00,Wunderground v.1.15,2013-03-02 13:10:00,
2013-03-02 08:20:00,27.3,21.6,29.78,WSW,238,3.0,4.0,79,0.00,,,0.00,Wunderground v.1.15,2013-03-02 13:20:00,
2013-03-02 08:30:00,27.4,21.7,29.78,West,273,4.0,4.0,79,0.00,,,0.00,Wunderground v.1.15,2013-03-02 13:30:00,
2013-03-02 11:30:00,28.3,22.0,29.78,WSW,253,4.0,12.0,77,0.00,,,0.00,Wunderground v.1.15,2013-03-02 16:30:00,
2013-03-02 11:40:00,28.6,22.0,29.78,NW,314,5.0,12.0,76,0.00,,,0.00,Wunderground v.1.15,2013-03-02 16:40:00,
2013-03-02 11:50:00,28.8,22.2,29.78,NW,325,4.0,4.0,76,0.00,,,0.00,Wunderground v.1.15,2013-03-02 16:50:00,
2013-03-02 12:00:00,28.6,21.7,29.78,NNW,327,5.0,12.0,75,0.00,,,0.00,Wunderground v.1.15,2013-03-02 17:00:00,
2013-03-02 12:10:00,29.3,23.0,29.77,NW,307,6.0,7.0,77,0.00,,,0.00,Wunderground v.1.15,2013-03-02 17:10:00,
2013-03-02 12:20:00,29.6,22.6,29.77,WNW,285,6.0,6.0,75,0.00,,,0.00,Wunderground v.1.15,2013-03-02 17:20:00,
2013-03-02 12:30:00,29.5,21.9,29.77,West,273,4.0,6.0,73,0.00,,,0.00,Wunderground v.1.15,2013-03-02 17:30:00,
2013-03-02 12:40:00,29.2,22.3,29.77,NW,308,5.0,5.0,75,0.00,,,0.00,Wunderground v.1.15,2013-03-02 17:40:00,
2013-03-02 12:50:00,29.1,21.8,29.77,WSW,250,5.0,5.0,74,0.00,,,0.00,Wunderground v.1.15,2013-03-02 17:50:00,
2013-03-02 13:00:00,28.8,22.2,29.77,WNW,291,5.0,7.0,76,0.00,,,0.00,Wunderground v.1.15,2013-03-02 18:00:00,
2013-03-02 13:10:00,29.1,22.2,29.76,NW,308,5.0,15.0,75,0.00,,,0.00,Wunderground v.1.15,2013-03-02 18:10:00,
2013-03-02 13:20:00,29.1,21.5,29.76,West,280,6.0,15.0,73,0.00,,,0.00,Wunderground v.1.15,2013-03-02 18:20:00,
2013-03-02 13:30:00,28.8,21.6,29.76,WNW,283,5.0,5.0,74,0.00,,,0.00,Wunderground v.1.15,2013-03-02 18:30:00,
2013-03-02 13:40:00,28.6,21.4,29.75,West,274,5.0,5.0,74,0.00,,,0.00,Wunderground v.1.15,2013-03-02 18:40:00,
2013-03-02 13:50:00,28.7,21.5,29.75,WNW,295,4.0,4.0,74,0.00,,,0.00,Wunderground v.1.15,2013-03-02 18:50:00,
2013-03-02 14:00:00,28.4,21.2,29.75,WNW,291,5.0,5.0,74,0.00,,,0.00,Wunderground v.1.15,2013-03-02 19:00:00,
2013-03-02 14:10:00,28.2,21.3,29.75,NW,304,5.0,8.0,75,0.00,,,0.00,Wunderground v.1.15,2013-03-02 19:10:00,
2013-03-02 14:20:00,28.1,21.2,29.75,SSW,204,5.0,5.0,75,0.00,,,0.00,Wunderground v.1.15,2013-03-02 19:20:00,
2013-03-02 14:30:00,28.2,21.6,29.75,NW,314,5.0,5.0,76,0.00,,,0.00,Wunderground v.1.15,2013-03-02 19:30:00,
2013-03-02 14:40:00,28.2,20.7,29.75,WNW,286,5.0,5.0,73,0.00,,,0.00,Wunderground v.1.15,2013-03-02 19:40:00,
2013-03-02 14:50:00,28.3,21.1,29.75,WNW,300,4.0,4.0,74,0.00,,,0.00,Wunderground v.1.15,2013-03-02 19:50:00,
2013-03-02 15:00:00,28.0,20.5,29.75,West,259,6.0,10.0,73,0.00,,,0.00,Wunderground v.1.15,2013-03-02 20:00:00,
2013-03-02 15:10:00,28.1,21.2,29.75,WNW,302,6.0,16.0,75,0.00,,,0.00,Wunderground v.1.15,2013-03-02 20:10:00,
2013-03-02 19:40:00,23.9,16.5,29.79,SW,229,4.0,4.0,73,0.00,,,0.00,Wunderground v.1.15,2013-03-03 00:40:00,
2013-03-02 19:50:00,23.9,16.5,29.79,WSW,255,5.0,22.0,73,0.00,,,0.00,Wunderground v.1.15,2013-03-03 00:50:00,
2013-03-02 20:00:00,24.1,17.0,29.80,West,267,5.0,22.0,74,0.00,,,0.00,Wunderground v.1.15,2013-03-03 01:00:00,
2013-03-02 20:10:00,24.1,17.0,29.79,WNW,283,4.0,4.0,74,0.00,,,0.00,Wunderground v.1.15,2013-03-03 01:10:00,
2013-03-02 20:20:00,24.1,17.3,29.80,West,278,6.0,6.0,75,0.00,,,0.00,Wunderground v.1.15,2013-03-03 01:20:00,
2013-03-02 20:30:00,24.1,17.3,29.80,NW,321,5.0,7.0,75,0.00,,,0.00,Wunderground v.1.15,2013-03-03 01:30:00,
2013-03-02 20:40:00,23.9,17.4,29.80,SW,221,6.0,6.0,76,0.00,,,0.00,Wunderground v.1.15,2013-03-03 01:40:00,
2013-03-02 20:50:00,23.9,18.0,29.80,West,271,5.0,5.0,78,0.00,,,0.00,Wunderground v.1.15,2013-03-03 01:50:00,
2013-03-02 21:00:00,23.9,18.3,29.81,WNW,287,7.0,7.0,79,0.00,,,0.00,Wunderground v.1.15,2013-03-03 02:00:00,
2013-03-02 21:10:00,23.9,18.6,29.81,NW,315,7.0,7.0,80,0.00,,,0.00,Wunderground v.1.15,2013-03-03 02:10:00,
2013-03-02 21:20:00,23.8,18.2,29.81,West,259,8.0,19.0,79,0.00,,,0.00,Wunderground v.1.15,2013-03-03 02:20:00,